TimeEST,TemperatureF,Dew PointF,Humidity,Sea Level PressureIn,VisibilityMPH,Wind Direction,Wind SpeedMPH,Gust SpeedMPH,PrecipitationIn,Events,Conditions,WindDirDegrees,DateUTC
12:52 AM,-17.0,-20.9,82,30.04,10.0,Calm,Calm,-,N/A,,Clear,0,2003-01-15 05:52:00
1:52 AM,-18.9,-24.0,78,30.04,10.0,Calm,Calm,-,N/A,,Clear,0,2003-01-15 06:52:00
2:52 AM,-18.9,-24.0,78,30.04,10.0,Calm,Calm,-,N/A,,Clear,0,2003-01-15 07:52:00
3:52 AM,-20.9,-26.0,77,30.05,10.0,Calm,Calm,-,N/A,,Clear,0,2003-01-15 08:52:00
4:52 AM,-20.0,-25.1,78,30.05,10.0,Calm,Calm,-,N/A,,Clear,0,2003-01-15 09:52:00
5:52 AM,-20.0,-25.1,78,30.06,10.0,Calm,Calm,-,N/A,,Scattered Clouds,0,2003-01-15 10:52:00
6:39 AM,-16.6,-22.0,76,29.94,10.0,Calm,Calm,-,N/A,,Overcast,0,2003-01-15 11:39:00
6:52 AM,-16.1,-20.9,79,30.06,10.0,Calm,Calm,-,N/A,,Overcast,0,2003-01-15 11:52:00
7:52 AM,-13.0,-18.0,78,30.07,10.0,Calm,Calm,-,N/A,,Overcast,0,2003-01-15 12:52:00
8:43 AM,-9.4,-14.8,77,29.96,10.0,Calm,Calm,-,N/A,,Overcast,0,2003-01-15 13:43:00
8:52 AM,-9.0,-14.1,79,30.08,10.0,Calm,Calm,-,N/A,,Mostly Cloudy,0,2003-01-15 13:52:00
9:00 AM,-9.4,-14.8,77,29.96,10.0,Calm,Calm,-,N/A,,Scattered Clouds,0,2003-01-15 14:00:00
9:52 AM,-5.1,-9.9,80,30.07,10.0,Calm,Calm,-,N/A,,Mostly Cloudy,0,2003-01-15 14:52:00
10:52 AM,5.0,-6.0,61,30.04,10.0,Variable,4.6,-,N/A,,Clear,0,2003-01-15 15:52:00
11:52 AM,8.1,-5.1,55,30.01,10.0,West,6.9,-,N/A,,Clear,270,2003-01-15 16:52:00
12:52 PM,10.0,-4.0,53,29.99,10.0,West,8.1,-,N/A,,Clear,270,2003-01-15 17:52:00
1:52 PM,10.0,-4.0,53,29.98,10.0,Variable,6.9,-,N/A,,Clear,0,2003-01-15 18:52:00
2:52 PM,10.9,-4.0,51,29.98,10.0,West,6.9,-,N/A,,Clear,270,2003-01-15 19:52:00
3:52 PM,10.9,-4.0,51,29.99,10.0,WNW,6.9,-,N/A,,Clear,300,2003-01-15 20:52:00
4:52 PM,9.0,-4.0,56,30.01,10.0,NNW,4.6,-,N/A,,Partly Cloudy,330,2003-01-15 21:52:00
5:52 PM,1.0,-5.1,75,30.03,10.0,Calm,Calm,-,N/A,,Partly Cloudy,0,2003-01-15 22:52:00
6:52 PM,-2.0,-7.1,79,30.04,10.0,Calm,Calm,-,N/A,,Scattered Clouds,0,2003-01-15 23:52:00
7:52 PM,-5.1,-8.0,87,30.04,10.0,Calm,Calm,-,N/A,,Mostly Cloudy,0,2003-01-16 00:52:00
8:52 PM,-2.0,-7.1,79,30.02,10.0,Calm,Calm,-,N/A,,Overcast,0,2003-01-16 01:52:00
9:52 PM,-0.0,-5.1,79,30.01,3.0,Calm,Calm,-,0.00,Snow,Light Snow,0,2003-01-16 02:52:00
10:44 PM,-0.4,-4.0,85,29.90,3.0,Calm,Calm,-,0.00,Snow,Light Snow,0,2003-01-16 03:44:00
10:52 PM,-0.0,-4.0,83,29.99,3.0,Calm,Calm,-,0.00,Snow,Light Snow,0,2003-01-16 03:52:00
11:03 PM,-0.4,-4.0,85,29.90,2.5,Calm,Calm,-,0.00,Snow,Light Snow,0,2003-01-16 04:03:00
11:33 PM,-2.2,-7.6,78,29.89,3.0,Calm,Calm,-,0.00,Snow,Light Snow,0,2003-01-16 04:33:00
11:52 PM,-2.0,-5.1,87,29.99,6.0,Calm,Calm,-,0.00,,Overcast,0,2003-01-16 04:52:00